Simultaneous Nadir Overpasses (SNOs) Predictions

Prediction of SNOs between GOES-17 and NPP Satellite Orbit:

Table of predicted SNOs for the next 14.0 days since TLE Epoch: 6/14/2024
Index Date Time (GOES-17) GOES-17 Lat,Lon NPP Lat,Lon Distance(km) Time Diff (sec)
1 06/14/2024 20:34:39 -0.02,-104.71 0.00,-107.42 302.12 0
2 06/15/2024 20:17:03 -0.02,-104.71 0.44,-102.76 223.11 80
3 06/17/2024 08:38:47 0.02,-104.71 0.77,-108.01 376.28 80
4 06/18/2024 08:17:22 -0.02,-104.71 -0.32,-103.48 140.00 80
5 06/19/2024 20:39:14 0.02,-104.71 -0.91,-108.77 463.33 80
6 06/20/2024 20:23:08 0.02,-104.70 0.13,-104.23 53.74 80
7 06/23/2024 08:26:05 -0.02,-104.69 0.04,-104.95 29.09 80
8 06/24/2024 08:04:38 -0.01,-104.69 -0.94,-100.40 487.93 80
9 06/25/2024 20:26:31 -0.00,-104.68 -0.21,-105.70 115.57 80
10 06/26/2024 20:10:24 -0.01,-104.68 0.78,-101.15 401.74 80
11 06/28/2024 08:29:28 0.01,-104.68 0.41,-106.41 197.60 80
